Location: Dammartin
(48.9032°N, 1.6195°E)
Time: 22:41:38
(UTC+00:00)

YUBILEINY - Pass Details

Date: 12 December 2023
Orbit: 1479 x 1508 km, 82.5° (Epoch: 04 March)

Event Time Altitude Azimuth Distance (km) Brightness Sun altitude
Rises 17:34:58 0° 351° (N) 4,628 ? -15.3°
Reaches altitude 10° 17:38:34 10° 4° (N) 3,640 ? -15.8°
Maximum altitude 17:45:38 26° 59° (ENE) 2,578 ? -16.9°
Enters shadow 17:48:11 23° 84° (E) 2,737 ? -17.3°
